| time (UTC) | temp F | wind direction | speed knots | gust knots | rain 1hr in | rain 24hr in | rain mn in | humidity % | barometer mb |
| 20260507183904 | 65 | 247 | 3.5 | 10.4 | 0.00 | 0.00 | 0.00 | 18 | 1015.9 |
| 20260507183404 | 65 | 326 | 2.6 | 10.4 | 0.00 | 0.00 | 0.00 | 20 | 1016.0 |
| 20260507181904 | 64 | 347 | 1.7 | 4.3 | 0.00 | 0.00 | 0.00 | 21 | 1016.3 |
| 20260507181404 | 63 | 9 | 0.9 | 4.3 | 0.00 | 0.00 | 0.00 | 25 | 1016.4 |
| 20260507175404 | 62 | 210 | 1.7 | 7.0 | 0.00 | 0.00 | 0.00 | 26 | 1016.8 |
| 20260507174904 | 61 | 323 | 1.7 | 7.0 | 0.00 | 0.00 | 0.00 | 27 | 1016.9 |
| 20260507172405 | 59 | 312 | 1.7 | 5.2 | 0.00 | 0.00 | 0.00 | 33 | 1017.1 |
| 20260507171404 | 58 | 308 | 1.7 | 6.1 | 0.00 | 0.00 | 0.00 | 38 | 1017.3 |
| 20260507163904 | 53 | 287 | 1.7 | 5.2 | 0.00 | 0.00 | 0.00 | 46 | 1017.9 |
| 20260507162905 | 52 | 281 | 1.7 | 7.0 | 0.00 | 0.00 | 0.00 | 49 | 1018.2 |
| 20260507162406 | 51 | 308 | 1.7 | 2.6 | 0.00 | 0.00 | 0.00 | 51 | 1018.4 |
| 20260507161905 | 50 | 1 | 1.7 | 2.6 | 0.00 | 0.00 | 0.00 | 52 | 1018.5 |
| 20260507160404 | 49 | 299 | 0.9 | 7.0 | 0.00 | 0.00 | 0.00 | 56 | 1018.7 |
| 20260507155904 | 48 | 6 | 1.7 | 7.0 | 0.00 | 0.00 | 0.00 | 57 | 1018.8 |
| 20260507154904 | 47 | 319 | 0.9 | 4.3 | 0.00 | 0.00 | 0.00 | 63 | 1019.0 |
| 20260507153905 | 46 | 7 | 0.9 | 5.2 | 0.00 | 0.00 | 0.00 | 63 | 1019.1 |
| 20260507151904 | 45 | 267 | 1.7 | 5.2 | 0.00 | 0.00 | 0.00 | 66 | 1019.0 |
| 20260507150905 | 44 | 242 | 1.7 | 5.2 | 0.00 | 0.00 | 0.00 | 68 | 1019.0 |
| 20260507145405 | 42 | 241 | 0.9 | 5.2 | 0.00 | 0.00 | 0.00 | 71 | 1019.0 |
| 20260507144904 | 42 | 234 | 1.7 | 5.2 | 0.00 | 0.00 | 0.00 | 72 | 1019.0 |
| 20260507143405 | 41 | 233 | 1.7 | 2.6 | 0.00 | 0.00 | 0.00 | 75 | 1019.2 |
| 20260507142904 | 40 | 333 | 0.9 | 2.6 | 0.00 | 0.00 | 0.00 | 77 | 1019.3 |
| 20260507141904 | 39 | 321 | 0.9 | 2.6 | 0.00 | 0.00 | 0.00 | 79 | 1019.5 |
| 20260507140904 | 39 | 262 | 1.7 | 4.3 | 0.00 | 0.00 | 0.00 | 80 | 1019.7 |
| 20260507135905 | 38 | 191 | 0.0 | 1.7 | 0.00 | 0.00 | 0.00 | 83 | 1019.8 |
| 20260507135405 | 37 | 141 | 0.0 | 1.7 | 0.00 | 0.00 | 0.00 | 84 | 1019.9 |
| 20260507134904 | 37 | 141 | 0.9 | 1.7 | 0.00 | 0.00 | 0.00 | 84 | 1019.8 |
| 20260507133905 | 34 | 0 | 0.9 | 1.7 | 0.00 | 0.00 | 0.00 | 85 | 1019.7 |
| 20260507131906 | 32 | 141 | 0.9 | 2.6 | 0.00 | 0.00 | 0.00 | 86 | 1019.6 |
| 20260507130405 | 30 | 141 | 0.9 | 2.6 | 0.00 | 0.00 | 0.00 | 87 | 1019.8 |
| 20260507124404 | 29 | 141 | 0.0 | 0.0 | 0.00 | 0.00 | 0.00 | 87 | 1019.7 |
| 20260507123904 | 29 | 141 | 0.0 | 0.9 | 0.00 | 0.00 | 0.00 | 86 | 1019.7 |
| 20260507123405 | 29 | 141 | 0.0 | 0.9 | 0.00 | 0.00 | 0.00 | 86 | 1019.6 |
| 20260507121905 | 29 | 141 | 0.0 | 0.9 | 0.00 | 0.00 | 0.00 | 86 | 1019.8 |
| 20260507115404 | 29 | 141 | 0.0 | 0.0 | 0.00 | 0.00 | 0.00 | 85 | 1019.7 |
| 20260507114905 | 29 | 141 | 0.0 | 0.0 | 0.00 | 0.00 | 0.00 | 85 | 1019.7 |
| 20260507113404 | 30 | 141 | 0.0 | 0.0 | 0.00 | 0.00 | 0.00 | 85 | 1019.6 |
| 20260507112904 | 30 | 141 | 0.0 | 0.0 | 0.00 | 0.00 | 0.00 | 85 | 1019.5 |
| 20260507111905 | 30 | 141 | 0.0 | 0.9 | 0.00 | 0.00 | 0.00 | 84 | 1019.1 |
| 20260507111405 | 30 | 141 | 0.0 | 0.9 | 0.00 | 0.00 | 0.00 | 84 | 1019.1 |
| 20260507105404 | 31 | 141 | 0.0 | 0.9 | 0.00 | 0.00 | 0.00 | 84 | 1019.0 |
| 20260507104904 | 31 | 141 | 0.0 | 0.9 | 0.00 | 0.00 | 0.00 | 84 | 1019.0 |
| 20260507103904 | 31 | 141 | 0.0 | 0.9 | 0.00 | 0.00 | 0.00 | 83 | 1019.1 |
| 20260507103405 | 31 | 141 | 0.0 | 0.9 | 0.00 | 0.00 | 0.00 | 83 | 1019.1 |
| 20260507102905 | 32 | 141 | 0.0 | 1.7 | 0.00 | 0.00 | 0.00 | 83 | 1019.0 |
| 20260507102404 | 32 | 141 | 0.0 | 1.7 | 0.00 | 0.00 | 0.00 | 83 | 1019.1 |
| 20260507101904 | 32 | 141 | 0.0 | 2.6 | 0.00 | 0.00 | 0.00 | 83 | 1019.1 |
| 20260507100904 | 32 | 141 | 0.9 | 2.6 | 0.00 | 0.00 | 0.00 | 83 | 1019.0 |
| 20260507095904 | 32 | 141 | 0.9 | 2.6 | 0.00 | 0.00 | 0.00 | 83 | 1019.0 |
| 20260507093405 | 31 | 141 | 0.9 | 2.6 | 0.00 | 0.00 | 0.00 | 82 | 1019.1 |
| 20260507091905 | 31 | 141 | 0.0 | 2.6 | 0.00 | 0.00 | 0.00 | 82 | 1019.0 |
| 20260507090905 | 31 | 141 | 0.9 | 2.6 | 0.00 | 0.00 | 0.00 | 82 | 1019.1 |
| 20260507090404 | 31 | 141 | 1.7 | 2.6 | 0.00 | 0.00 | 0.00 | 82 | 1018.9 |
| 20260507085904 | 32 | 141 | 0.0 | 0.0 | 0.00 | 0.00 | 0.00 | 81 | 1019.0 |
| 20260507085404 | 32 | 141 | 0.0 | 1.7 | 0.00 | 0.00 | 0.00 | 81 | 1018.9 |
| 20260507083404 | 32 | 141 | 0.0 | 1.7 | 0.00 | 0.00 | 0.00 | 81 | 1018.8 |
| 20260507082905 | 32 | 141 | 0.0 | 1.7 | 0.00 | 0.00 | 0.00 | 81 | 1018.7 |
| 20260507082404 | 32 | 141 | 0.0 | 1.7 | 0.00 | 0.00 | 0.00 | 81 | 1018.8 |
| 20260507081904 | 32 | 141 | 0.9 | 2.6 | 0.00 | 0.00 | 0.00 | 82 | 1018.7 |
| 20260507081404 | 32 | 141 | 1.7 | 2.6 | 0.00 | 0.00 | 0.00 | 83 | 1018.7 |
| 20260507080404 | 32 | 140 | 2.6 | 6.1 | 0.00 | 0.00 | 0.00 | 83 | 1018.5 |
| 20260507075905 | 31 | 126 | 1.7 | 2.6 | 0.00 | 0.00 | 0.00 | 84 | 1018.5 |
| 20260507074904 | 31 | 108 | 0.9 | 1.7 | 0.00 | 0.00 | 0.00 | 83 | 1018.4 |
| 20260507073905 | 32 | 108 | 0.0 | 0.0 | 0.00 | 0.00 | 0.00 | 83 | 1018.3 |
| 20260507072905 | 32 | 108 | 0.0 | 0.0 | 0.00 | 0.00 | 0.00 | 82 | 1018.1 |
| 20260507071904 | 33 | 108 | 0.0 | 2.6 | 0.00 | 0.00 | 0.00 | 83 | 1018.0 |
| 20260507071404 | 33 | 108 | 0.0 | 2.6 | 0.00 | 0.00 | 0.00 | 83 | 1017.9 |
| 20260507070904 | 33 | 105 | 1.7 | 2.6 | 0.00 | 0.00 | 0.00 | 83 | 1017.8 |
| 20260507070404 | 33 | 82 | 0.9 | 1.7 | 0.00 | 0.00 | 0.00 | 82 | 1017.8 |
| 20260507065905 | 33 | 82 | 0.0 | 0.0 | 0.00 | 0.00 | 0.00 | 82 | 1017.8 |
| 20260507065404 | 33 | 82 | 0.0 | 0.9 | 0.00 | 0.00 | 0.00 | 82 | 1017.7 |
| 20260507061904 | 33 | 82 | 0.0 | 0.0 | 0.00 | 0.00 | 0.00 | 82 | 1017.4 |
| 20260507061405 | 34 | 82 | 0.0 | 0.0 | 0.00 | 0.00 | 0.00 | 82 | 1017.4 |
| 20260507060905 | 34 | 82 | 0.0 | 0.0 | 0.00 | 0.00 | 0.00 | 81 | 1017.3 |
| 20260507055405 | 34 | 82 | 0.0 | 0.0 | 0.00 | 0.00 | 0.00 | 81 | 1017.1 |
| 20260507054904 | 35 | 82 | 0.0 | 0.0 | 0.00 | 0.00 | 0.00 | 80 | 1017.0 |
| 20260507054404 | 35 | 82 | 0.0 | 0.0 | 0.00 | 0.00 | 0.00 | 80 | 1017.0 |
| 20260507053904 | 35 | 82 | 0.0 | 0.0 | 0.00 | 0.00 | 0.00 | 79 | 1016.9 |
| 20260507053405 | 35 | 82 | 0.0 | 0.0 | 0.00 | 0.00 | 0.00 | 79 | 1016.9 |
| 20260507052904 | 36 | 82 | 0.0 | 0.0 | 0.00 | 0.00 | 0.00 | 78 | 1016.9 |
| 20260507051405 | 37 | 82 | 0.0 | 0.0 | 0.00 | 0.00 | 0.00 | 77 | 1016.7 |
| 20260507050905 | 37 | 82 | 0.0 | 1.7 | 0.00 | 0.00 | 0.00 | 77 | 1016.7 |
| 20260507050404 | 37 | 82 | 0.0 | 1.7 | 0.00 | 0.00 | 0.00 | 76 | 1016.7 |
| 20260507045905 | 38 | 82 | 0.9 | 1.7 | 0.00 | 0.00 | 0.00 | 75 | 1016.6 |
| 20260507045404 | 38 | 82 | 0.0 | 0.0 | 0.00 | 0.00 | 0.00 | 75 | 1016.5 |
| 20260507044904 | 38 | 82 | 0.0 | 0.0 | 0.00 | 0.00 | 0.00 | 74 | 1016.5 |
| 20260507044404 | 39 | 82 | 0.0 | 0.0 | 0.00 | 0.00 | 0.00 | 73 | 1016.3 |
| 20260507035905 | 42 | 82 | 0.0 | 0.0 | 0.00 | 0.00 | 0.00 | 65 | 1015.3 |
| 20260507034904 | 43 | 82 | 0.0 | 0.0 | 0.00 | 0.00 | 0.00 | 64 | 1015.1 |
| 20260507032904 | 45 | 82 | 0.0 | 1.7 | 0.00 | 0.00 | 0.00 | 61 | 1014.8 |
| 20260507032404 | 45 | 70 | 0.9 | 1.7 | 0.00 | 0.00 | 0.00 | 59 | 1014.7 |
| 20260507031404 | 46 | 62 | 0.9 | 1.7 | 0.00 | 0.00 | 0.00 | 55 | 1014.5 |
| 20260507030405 | 47 | 62 | 0.0 | 2.6 | 0.00 | 0.00 | 0.00 | 54 | 1014.3 |
| 20260507024404 | 49 | 215 | 0.0 | 2.6 | 0.00 | 0.00 | 0.00 | 48 | 1013.6 |
| 20260507023405 | 50 | 199 | 0.9 | 2.6 | 0.00 | 0.00 | 0.00 | 45 | 1013.4 |
| 20260507022904 | 50 | 215 | 0.0 | 1.7 | 0.00 | 0.00 | 0.00 | 45 | 1013.3 |
| 20260507021904 | 51 | 208 | 0.9 | 2.6 | 0.00 | 0.00 | 0.00 | 43 | 1013.1 |
| 20260507021404 | 51 | 207 | 1.7 | 2.6 | 0.00 | 0.00 | 0.00 | 42 | 1013.1 |
| 20260507020904 | 52 | 197 | 0.9 | 2.6 | 0.00 | 0.00 | 0.00 | 42 | 1013.0 |
| 20260507020404 | 52 | 238 | 0.9 | 2.6 | 0.00 | 0.00 | 0.00 | 41 | 1013.0 |
| 20260507015904 | 52 | 244 | 0.9 | 8.7 | 0.00 | 0.00 | 0.00 | 40 | 1012.8 |
| 20260507014405 | 54 | 267 | 1.7 | 6.1 | 0.00 | 0.00 | 0.00 | 37 | 1012.6 |
| 20260507013404 | 54 | 203 | 2.6 | 7.0 | 0.00 | 0.00 | 0.00 | 35 | 1012.6 |
| 20260507003904 | 56 | 0 | 1.7 | 7.8 | 0.00 | 0.00 | 0.00 | 36 | 1011.7 |
| 20260507000904 | 58 | 223 | 2.6 | 7.8 | 0.00 | 0.00 | 0.00 | 36 | 1010.8 |
| 20260506235904 | 58 | 227 | 1.7 | 10.4 | 0.00 | 0.00 | 0.00 | 39 | 1010.6 |
| 20260506234904 | 58 | 232 | 2.6 | 12.2 | 0.00 | 0.00 | 0.00 | 36 | 1010.4 |
| 20260506234404 | 58 | 244 | 2.6 | 12.2 | 0.00 | 0.00 | 0.00 | 35 | 1010.4 |
| 20260506233904 | 58 | 243 | 3.5 | 7.0 | 0.00 | 0.00 | 0.00 | 36 | 1010.3 |
| 20260506233404 | 57 | 208 | 2.6 | 6.1 | 0.00 | 0.00 | 0.00 | 43 | 1010.2 |
| 20260506231905 | 56 | 188 | 0.0 | 2.6 | 0.00 | 0.00 | 0.00 | 45 | 1010.2 |
| 20260506225404 | 56 | 177 | 1.7 | 5.2 | 0.00 | 0.00 | 0.00 | 51 | 1010.4 |
| 20260506224904 | 55 | 217 | 0.9 | 6.1 | 0.00 | 0.00 | 0.00 | 49 | 1010.4 |
| 20260506224403 | 54 | 288 | 2.6 | 10.4 | 0.00 | 0.00 | 0.00 | 53 | 1010.4 |
| 20260506223905 | 53 | 245 | 0.9 | 10.4 | 0.00 | 0.00 | 0.00 | 57 | 1010.5 |
| 20260506223404 | 52 | 248 | 4.3 | 10.4 | 0.00 | 0.00 | 0.00 | 57 | 1010.8 |
| 20260506221904 | 52 | 322 | 0.9 | 5.2 | 0.00 | 0.00 | 0.00 | 61 | 1010.5 |
| 20260506220904 | 54 | 0 | 1.7 | 5.2 | 0.00 | 0.00 | 0.00 | 60 | 1010.4 |
| 20260506220404 | 56 | 0 | 1.7 | 5.2 | 0.00 | 0.00 | 0.00 | 52 | 1010.2 |
| 20260506214404 | 59 | 217 | 2.6 | 10.4 | 0.00 | 0.00 | 0.00 | 39 | 1009.2 |
| 20260506213904 | 58 | 175 | 2.6 | 10.4 | 0.00 | 0.00 | 0.00 | 39 | 1009.1 |
| 20260506213404 | 58 | 204 | 4.3 | 10.4 | 0.00 | 0.00 | 0.00 | 40 | 1009.1 |
| 20260506212904 | 58 | 183 | 4.3 | 10.4 | 0.00 | 0.00 | 0.00 | 38 | 1009.1 |
| 20260506211404 | 59 | 182 | 5.2 | 12.2 | 0.00 | 0.00 | 0.00 | 38 | 1008.8 |
| 20260506205904 | 58 | 179 | 1.7 | 7.8 | 0.00 | 0.00 | 0.00 | 40 | 1008.9 |
| 20260506204904 | 58 | 200 | 1.7 | 11.3 | 0.00 | 0.00 | 0.00 | 40 | 1009.2 |
| 20260506204404 | 58 | 181 | 3.5 | 11.3 | 0.00 | 0.00 | 0.00 | 41 | 1008.9 |
| 20260506203904 | 58 | 200 | 1.7 | 7.0 | 0.00 | 0.00 | 0.00 | 42 | 1009.2 |
| 20260506202404 | 57 | 192 | 0.9 | 5.2 | 0.00 | 0.00 | 0.00 | 43 | 1009.3 |
| 20260506201904 | 57 | 320 | 0.9 | 7.0 | 0.00 | 0.00 | 0.00 | 50 | 1009.4 |
| 20260506201404 | 57 | 203 | 1.7 | 7.8 | 0.00 | 0.00 | 0.00 | 43 | 1009.5 |
| 20260506195904 | 57 | 193 | 5.2 | 10.4 | 0.00 | 0.00 | 0.00 | 41 | 1009.5 |
| 20260506194904 | 57 | 205 | 4.3 | 11.3 | 0.00 | 0.00 | 0.00 | 42 | 1009.4 |
| 20260506193905 | 58 | 231 | 4.3 | 11.3 | 0.00 | 0.00 | 0.00 | 41 | 1009.5 |
| 20260506193404 | 57 | 186 | 4.3 | 10.4 | 0.00 | 0.00 | 0.00 | 40 | 1009.4 |
| 20260506191904 | 56 | 205 | 2.6 | 8.7 | 0.00 | 0.00 | 0.00 | 45 | 1009.4 |
| 20260506185404 | 55 | 0 | 2.6 | 10.4 | 0.00 | 0.00 | 0.00 | 51 | 1009.6 |
| 20260506184904 | 55 | 0 | 2.6 | 10.4 | 0.00 | 0.00 | 0.00 | 51 | 1009.7 |